Location: Unspecified
(0.0000°N, 0.0000°E)
Time: 21:52:04
(UTC+00:00)

N. Korean satellite - Pass Details

Date: 26 October 2020
Orbit: 452 x 505 km, 97.2° (Epoch: 30 October)

Event Time Altitude Azimuth Distance (km) Brightness Sun altitude
Rises 04:29:28 0° 37° (NE) 2,454 10.5 -18.2°
Reaches altitude 10° 04:31:57 10° 57° (ENE) 1,591 9.8 -17.6°
Maximum altitude 04:34:21 18° 101° (ESE) 1,193 9.6 -17.0°
Drops below altitude 10° 04:36:46 10° 146° (SE) 1,611 9.9 -16.4°
Sets 04:39:17 0° 165° (SSE) 2,500 10.6 -15.8°
